sat.trackr.live / text

‹ back to catalog

IRIDIUM 154

NORAD 43574 · 2018-061F

PAYLOAD ACTIVE UNKNOWN

§ Identity

Operator
Country
US
Launch date
2018-07-25
Launch site
AFWTR
Launch vehicle
Mass (kg)
RCS (m²)

Purposes: comms

External: N2YO · Heavens-Above · Gunter

§ Orbital elements

Epoch: 2026-05-25T03:19:02.148384Z

Period
100.40 min
Inclination
86.3969°
Eccentricity
0.0002119
Mean motion
14.34219602 rev/d
Perigee alt
776.1 km
Apogee alt
779.2 km
Semi-major
7,155.8 km
B*
5.7699e-5
RAAN
66.4417°
Arg perigee
83.2753°
Mean anomaly
276.8683°
Rev number
41,010

§ Raw data

IRIDIUM 1541 43574U 18061F   26145.13821931  .00000181  00000+0  57699-4 0  99942 43574  86.3969  66.4417 0002119  83.2753 276.8683 14.34219602410103

JSON: /api/v1/satellites/43574 · /tle

For live sub-satellite position, see the globe view (requires WebGL).

§ Visibility from observer

Set your observer location to see the next 7 days of passes ≥ 10°. The values pass through the URL so the page stays shareable.

No JS? Fill the form by hand. The geolocation button needs JavaScript.